Regional Weather Roundup
Issued by NWS Charleston, SC

Current Version | Previous Version | Graphics & Text | Print | Product List | Glossary On
Versions: 1 2 3 4 5 6 7 8 9 10 11 12 13 14 15 16 17 18 19 20 21 22 23 24 25 26 27 28 29 30 31 32 33 34 35 36 37 38 39 40 41 42 43 44 45 46 47 48 49 50
000
ASUS42 KCHS 201711
RWRCHS
REGIONAL WEATHER ROUNDUP
NATIONAL WEATHER SERVICE CHARLESTON SC
100 PM EDT MON APR 20 2015

NOTE: "FAIR" INDICATES FEW OR NO CLOUDS BELOW 12,000 FEET WITH NO
SIGNIFICANT WEATHER AND/OR OBSTRUCTIONS TO VISIBILITY.

NOT ALL STATIONS ARE QUALITY CONTROLLED BY THE NATIONAL
WEATHER SERVICE. USE DATA WITH CAUTION...ESPECIALLY
DEWPOINT OBSERVATIONS.

SCZ027-030-031-034>040-042>050-201800-
...SOUTHEAST SOUTH CAROLINA...

CITY           SKY/WX    TMP DP  RH WIND       PRES   REMARKS
N CHARLESTON   PTSUNNY   76  64  66 SW12      29.84F
WATERFRONT PRK   N/A     75 N/A N/A W10G18      N/A
MOUNT PLEASANT FAIR      75  66  73 CALM      29.86S
PINOPOLIS      NOT AVBL
MONCKS CORNER  FAIR      75  64  69 S10G17    29.84S
SUMMERVILLE    FAIR      75  64  69 S10       29.85F
BEAUFORT MCAS  CLOUDY    72  65  78 S10       29.86F
BEAUFORT ARPT  FAIR      72  66  83 SW7       29.87S HAZE
HILTON HEAD IS SUNNY     72  64  78 SW9       29.88F
WALTERBORO     CLOUDY    73  63  68 SW12      29.85S
ALLENDALE      FAIR      73  64  73 VRB6      29.84S

...SOUTHERN MIDLANDS AND PEE DEE...

CITY           SKY/WX    TMP DP  RH WIND       PRES   REMARKS
GEORGETOWN     NOT AVBL
KINGSTREE      NOT AVBL
ORANGEBURG     CLOUDY    74  63  68 SW16      29.83R
BARNWELL       CLOUDY    73  66  78 SW8       29.84S
AIKEN          PTSUNNY   72  61  68 S12G18    29.85S
MANNING        FAIR      72  61  68 S8G21     29.83R
COLUMBIA       CLOUDY    77  63  61 SW15G22   29.79S
SUMTER         NOT AVBL
FLORENCE       MOSUNNY   79  64  60 SW16G26   29.78S
MYRTLE BEACH   MOSUNNY   75  64  69 S16       29.84F
N MYRTLE BEACH SUNNY     73  66  78 S16       29.83S

$$

GAZ063-065-086>088-099>101-113>116-118-119-134>141-150-201800-
...SOUTHEAST GEORGIA...

CITY           SKY/WX    TMP DP  RH WIND       PRES   REMARKS
SAVANNAH ARPT  CLOUDY    73  64  73 SW9       29.87F
HUNTER AAF     CLOUDY    73  68  83 SW7       29.85F
FORT STEWART   NOT AVBL
STATESBORO       N/A     74  65  71 SW9G16    29.86F
SYLVANIA       CLOUDY    74  67  78 W5        29.86S
CLAXTON        FAIR      72  66  83 SW7       29.87F

...CSRA...CENTRAL AND FAR SOUTHEAST GEORGIA...

CITY           SKY/WX    TMP DP  RH WIND       PRES   REMARKS
THOMSON        CLOUDY    73  67  81 S8G16     29.85F
AUGUSTA-BUSH   CLOUDY    72  65  78 SW10      29.81F
AUGUSTA-DANIEL CLOUDY    73  63  70 SW17G24   29.83R
SWAINSBORO     NOT AVBL
VIDALIA        CLOUDY    73  68  83 SW9       29.87S
EASTMAN        FAIR      73  73 100 SW7       29.87F
HAZLEHURST     FAIR      74  69  85 S7        29.86F
ALMA           CLOUDY    72  66  81 SW9       29.90S
WAYCROSS       CLOUDY    76  71  85 W13       29.90
JESUP          FAIR      75  70  83 W8        29.90R
BAXLEY         PTSUNNY   73  68  83 SW6       29.89S
BRUNSWICK      CLOUDY    73  64  73 SW8       29.89F
SAINT SIMONS   CLOUDY    73  66  78 SW9       29.89F

$$

SCZ027-028-034-036>038-045-046-048>050-GAZ119-141-201800-
...LAKE AND SUPPLEMENTAL COASTAL OBSERVATIONS...

STATION/POSITION TIME  TEMP    WIND        PRES    WAVE   SWELL
                       AIR SEA DIR/SP/G            HT/PER HT/PER/DIR
                 (UTC) (F)     (DEG/KT/KT) (MB)    (FT/S) (FT/S/D)
UPR LAKE MARION  NOT AVBL
WINYAH BAY       NOT AVBL
LAKE MURRAY      1600   72     220/  7/ 12 1008.1S
ACE BASIN NERRS  NOT AVBL
FORT PULASKI     1600   72 71  220/  6/ 10 1012.4R
SAPELO ISLAND    NOT AVBL

$$

ANZ835-935-AMZ111-154-330-350-352-354-370-450-454-472-201800-
...C-MAN AND BUOY OBSERVATIONS...

STATION/POSITION TIME  TEMP    WIND        PRES    WAVE   SWELL
                       AIR SEA DIR/SP/G            HT/PER HT/PER/DIR
                 (UTC) (F)     (DEG/KT/KT) (MB)    (FT/S) (FT/S/D)
BUOY 41004       1650   72 74  250/ 19/ 21 1010.7R   3/ 5   2/ 8
BUOY 41008       1650   70 69  250/  8/ 10 1012.3F   2/13   2/230/13
FOLLY BEACH CMAN 1600   70     220/ 13/ 15 1011.2S
CAPERS NEARSHORE NOT AVBL
FRIPP NEARSHORE  NOT AVBL


STATION/POSITION TIME  TEMP    WIND        PRES    WAVE   SWELL
                       AIR SEA DIR/SP/G            HT/PER HT/PER/DIR
                 (UTC) (F)     (DEG/KT/KT) (MB)    (FT/S) (FT/S/D)
5E ST. MARYS GA  1621      71                N/A     2/14   2/ 90/14
FRYING PAN BUOY  1650   73 73  240/ 14/ 16 1010.6R   4/ 7   2/100/ 9
BUOY 41025       1650   71 73  240/ 21/ 25 1008.6F   7/ 8   5/110/ 8
CAPE LOOKOUT NC  1600   69     230/  9/ 11 1009.6F
BUOY 41002       1650   74 73  200/ 16/ 19 1013.1F   4/ 5   2/ 10/14
BUOY 41010       1620   80 79  210/ 17/ 19 1013.0F
ST AUGUSTINE FL  1700   80 65  230/  7/ 10 1013.1F


$$



USA.gov is the U.S. government's official web portal to all federal, state and local government web resources and services.